Huvudsida
METAR-TAF:

METAR-TAF

Flygplatser :

Pajala Airport

Pajala, Sverige

latitud: 67-14-44N, longitud: 023-04-08E, höjd: 165 m

Aktuellt väderrapport

Denna rapport gjordes för 19 minuter sedan, klockan 00:50 UTC
Vind 10 kt från syd/sydväst
Temperatur 5°C
Fuktighet 65%
Tryck 1014 hPa

METAR: ESUP 210050Z AUTO 21010KT //// R11///// BKN087/// 05/M01 Q1014

Tid: 03:09 (01:09 UTC)


TAF: saknas

Aktuella väderrapporter och prognoser från 4000 flygplatser (METAR- och TAF-rapporter).

De tillgängliga stationerna syns som gula och röda prickar på kartan.

För musen över prickarna för att se namnen på stationerna.

Klicka sedan för att få väderrapporter och prognoser.

För att ändra kartan: Klicka på de gröna knapparna med ett svart kors på för att zooma in; den gröna knappen med ett streck på för att zooma ut; eller på de gröna pilarna för angränsande kartor.


METAR-TAF: